Orbital Elements at Epoch 2459200.5 (2020-Dec-17.0) TDB
Reference: JPL 38 (heliocentric ecliptic J2000)
Element | Value | Uncertainty (1-sigma) | Units |
e | .6985946925253258 | 3.1197e-07 | |
a | .7315142650267149 | 1.6157e-09 | au |
q | .2204822819724873 | 2.2804e-07 | au |
i | 30.34295339432334 | 4.6561e-05 | deg |
node | 176.1446326972697 | 7.5761e-06 | deg |
peri | 359.8527849045748 | 2.0121e-05 | deg |
M | 31.87661173745748 | 7.9029e-05 | deg |
tp | 2459180.265043357491 (2020-Nov-26.76504336) | 5.0144e-05 | TDB |
period | 228.5244257231803 0.63 | 7.571e-07 2.073e-09 | d yr |
n | 1.575323945616565 | 5.219e-09 | deg/d |
Q | 1.242546248080943 | 2.7443e-09 | au |
|
| | Orbit Determination Parameters
Additional Information
|